Miscellaneous Local Product
Issued by NWS Hastings, NE

Home | Current Version | Previous Version | Text Only | Print | Product List | Glossary Off
Versions: 1 2 3 4 5 6 7 8 9 10 11 12 13 14 15 16 17 18 19 20 21 22 23 24 25 26 27 28 29 30 31 32 33 34 35 36 37 38 39 40 41 42 43 44 45 46 47 48 49 50

000
AXUS43 KGID 112002
MISGRI

GID CWA HOURLY WEATHER ROUNDUP
NATIONAL WEATHER SERVICE HASTINGS NE
200 PM CST MON DEC 11 2017

NOTE: "FAIR" INDICATES FEW OR NO CLOUDS BELOW 12,000 FEET WITH NO
SIGNIFICANT WEATHER AND/OR OBSTRUCTIONS TO VISIBILITY.

...SOUTH CENTRAL NEBRASKA...

CITY           SKY/WX    TMP DP  RH WIND       PRES   REMARKS
GRAND ISLAND   CLOUDY    46  28  49 NW24G35   30.14R
KEARNEY        PTSUNNY   48  26  42 N35G40    30.17R
HASTINGS       CLOUDY    46  26  45 NW32G48   30.16R
ORD            CLOUDY    42  30  62 NW26G46   30.16R
YORK           CLOUDY    46  28  49 N22G31    30.09R
AURORA         CLOUDY    46  28  49 NW31      30.13R
LEXINGTON      SUNNY     52  23  32 NW30G38   30.18R
HOLDREGE       SUNNY     51  26  36 N18G32    30.16R
HEBRON         CLOUDY    50  26  39 NW25G37   30.11R

...NEBRASKA PANHANDLE...

CITY           SKY/WX    TMP DP  RH WIND       PRES   REMARKS
CHADRON        CLOUDY    48  15  26 NW26G33   30.31R
ALLIANCE       CLOUDY    47  11  23 NW29G37   30.27S
SCOTTSBLUFF    CLOUDY    52  12  20 NW26G38   30.33F
SIDNEY         SUNNY     50  10  20 NW35G46   30.30R

...WESTERN AND NORTH CENTRAL NEBRASKA...

CITY           SKY/WX    TMP DP  RH WIND       PRES   REMARKS
VALENTINE      CLOUDY    41  28  60 NW22G32   30.24R
AINSWORTH      CLOUDY    39  29  67 N31G37    30.22R WCI  27
ONEILL         CLOUDY    40  33  73 NW31G40   30.16R WCI  29
BROKEN BOW     CLOUDY    44  27  51 N28G43    30.19R
IMPERIAL       SUNNY     53   9  17 N26G40    30.23R
NORTH PLATTE   SUNNY     51  23  33 NW25G36   30.23R
MCCOOK         CLOUDY    55  13  18 NW30G48   30.20R

...EASTERN NEBRASKA...

CITY           SKY/WX    TMP DP  RH WIND       PRES   REMARKS
NORFOLK        CLOUDY    42  33  70 NW26G38   30.07R
SO SIOUX CITY  CLOUDY    41  32  70 N36G44    30.01R
TEKAMAH        CLOUDY    45  32  60 NW32G45   30.02R
COLUMBUS       CLOUDY    44  30  57 NW30G36   30.08S
ALBION         CLOUDY    44  31  59 N31G41    30.11R
OMAHA EPPLEY   CLOUDY    47  32  56 NW25G38   30.00R
OFFUTT AFB     CLOUDY    47  32  55 NW24G36   30.01R
MILLARD        CLOUDY    48  33  57 NW28G37   30.02R
LINCOLN        CLOUDY    48  30  49 NW32G44   30.09R
NEBRASKA CITY  CLOUDY    49  32  52 NW28G43   30.02R
BEATRICE       CLOUDY    49  29  46 NW29G36   30.08R
FALLS CITY     CLOUDY    51  28  41 NW24G38   30.01R

...NORTHERN KANSAS...

CITY           SKY/WX    TMP DP  RH WIND       PRES   REMARKS
GOODLAND       SUNNY     58   9  14 N32G47    30.24S
HILL CITY      CLOUDY    57  13  17 NW20G32   30.18F
NORTON         CLEAR     55  10  16 N21G35    30.17R
PHILLIPSBURG   SUNNY     55  16  21 NW21G29   30.16S
SMITH CENTER   SUNNY     52  21  30 NW23G31   30.16R
HAYS           CLOUDY    61  13  15 NW29G36   30.15F
RUSSELL        CLOUDY    59  13  16 NW28G37   30.14S
CONCORDIA      MOSUNNY   53  26  35 NW30G39   30.12R
SALINA         MOSUNNY   59  19  21 NW25G35   30.11S
TOPEKA         CLOUDY    56  27  32 NW28G36   30.03R



USA.gov is the U.S. government's official web portal to all federal, state and local government web resources and services.